Torna al catalogo

STARLINK-36566

AttivoComunicazioniSSO
NORAD 67551·PAYLOAD·🇺🇸 United States

Lanciato Jan 22, 2026 da Vandenberg Space Force Base

Loading…

Prossimi Passaggi (prossime 24 ore)

TLE

AggiornatoSource: CelesTrak SupGP

Epoca: Sep 15, 2026, 03:27 UTC

1 67551C 26014V   26258.14423611  .00061616  00000+0  19143-2 0  2589
2 67551  97.2846 143.5259 0002007 102.0530 256.9504 15.33380744    11

Traccia STARLINK-36566 in tempo reale con AllMySat

Download on the App Store